Location: Fontevrault
(47.1823°N, 0.0493°E)
Time: 09:07:42
(UTC+00:00)

Cosmos 2285 Rocket - Pass Details

Date: 16 June 2021
Orbit: 971 x 998 km, 74.0° (Epoch: 02 August)

Event Time Altitude Azimuth Distance (km) Brightness Sun altitude
Rises 20:35:18 0° 194° (SSW) 3,704 6.7 -5.7°
Reaches altitude 10° 20:37:51 10° 192° (SSW) 2,760 6.1 -6.0°
Maximum altitude 20:44:15 75° 109° (ESE) 1,037 4.1 -6.7°
Drops below altitude 10° 20:50:40 10° 25° (NNE) 2,771 6.7 -7.5°
Sets 20:53:14 0° 24° (NNE) 3,721 7.4 -7.8°
